This demonstration page uses our WeatherBlox Daily Observations layout. Learn more.

Left ArrowRight Arrow

Hourly Observations for November 30, 2019

Temp ( °F °C ) Dew Point ( °F °C ) Humidity (%) Winds ( mph kmh ) Pressure ( in mb ) Visibility ( mi km ) Precip ( " mm )
12:53 am 00:53 Cloudy with Light Snow 16 -8.9 13 -10.6 88 88 NNW 10 17 30.12 1020 8 13 0.00 0.00
1:53 am 01:53 Cloudy with Light Snow 15 -9.4 12 -11.1 88 88 NNW 9 15 30.13 1020 4 6 0.00 0.00
2:22 am 02:22 Cloudy with Light Snow 15 -9.4 12 -11.1 88 88 NNW 7 11 30.21 1023 4 6 0.01 0.25
2:53 am 02:53 Cloudy with Light Snow 16 -8.9 12 -11.1 84 84 N 8 13 30.14 1021 6 10 0.01 0.25
3:39 am 03:39 Cloudy with Light Snow 17 -8.3 13 -10.6 84 84 VRB 3 6 30.22 1023 2 3 0.00 0.00
3:53 am 03:53 Cloudy with Light Snow 15 -9.4 13 -10.6 91 91 VRB 3 6 30.17 1022 3 4 0.00 0.00
4:26 am 04:26 Cloudy with Light Snow 14 -10 11 -11.7 88 88 WSW 3 6 30.26 1025 2 3 0.01 0.25
4:53 am 04:53 Cloudy with Light Snow 15 -9.4 12 -11.1 88 88 W 5 7 30.19 1022 2 3 0.01 0.25
4:56 am 04:56 Cloudy with Light Snow 15 -9.4 12 -11.1 88 88 WSW 6 9 30.26 1025 2 3 0.00 0.00
5:20 am 05:20 Cloudy with Light Snow 14 -10 11 -11.7 88 88 W 9 15 30.28 1025 3 5 0.01 0.25
5:53 am 05:53 Cloudy with Light Snow 14 -10 10 -12.2 84 84 WNW 8 13 30.21 1023 3 5 0.01 0.25
6:22 am 06:22 Cloudy with Light Snow 14 -10 11 -11.7 88 88 W 8 13 30.30 1026 3 5 0.00 0.00
6:29 am 06:29 Cloudy with Light Snow 13 -10.6 10 -12.2 88 88 W 9 15 30.31 1026 4 6 0.00 0.00
6:53 am 06:53 Cloudy with Light Snow 13 -10.6 10 -12.2 88 88 WNW 8 13 30.24 1024 5 8 0.00 0.00
7:53 am 07:53 Cloudy with Light Snow 13 -10.6 10 -12.2 88 88 WSW 6 9 30.25 1025 4 6 0.00 0.00
8:27 am 08:27 Cloudy with Light Snow 14 -10 10 -12.2 84 84 WSW 8 13 30.34 1027 2 3 0.00 0.00
8:51 am 08:51 Cloudy with Light Snow 14 -10 10 -12 85 85 SW 9 15 30.35 1028 2 3 0.00 0.00
8:53 am 08:53 Cloudy with Light Snow 14 -10 11 -11.7 88 88 SW 9 15 30.28 1025 2 3 0.00 0.00
11:49 am 11:49 Cloudy 16 -9 12 -11 86 86 WSW 12 19 30.35 1028 7 11 0.00 0.00
11:53 am 11:53 Cloudy 16 -8.9 12 -11.1 84 84 SW 12 19 30.28 1025 8 13 0.00 0.00
12:24 pm 12:24 Cloudy 16 -8.9 12 -11.1 84 84 SW 12 19 30.34 1027 8 13 0.00 0.00
12:53 pm 12:53 Cloudy 16 -8.9 12 -11.1 84 84 SW 12 19 30.27 1025 8 13 0.00 0.00
1:53 pm 13:53 Cloudy 16 -8.9 11 -11.7 80 80 SW 14 22 30.28 1025 8 13 0.00 0.00
2:53 pm 14:53 Cloudy 16 -8.9 12 -11.1 84 84 SW 12 19 30.27 1025 9 14 0.00 0.00
3:53 pm 15:53 Mostly Sunny 12 -11.1 8 -13.3 84 84 WSW 7 11 30.27 1025 9 14 0.00 0.00
4:53 pm 16:53 Clear 9 -12.8 7 -13.9 92 92 Calm 30.28 1026 9 14 0.00 0.00
5:53 pm 17:53 Clear 8 -13.3 4 -15.6 83 83 S 3 6 30.28 1026 8 13 0.00 0.00
6:53 pm 18:53 Clear 5 -15 2 -16.7 87 87 Calm 30.29 1026 10 16 0.00 0.00
7:53 pm 19:53 Mostly Cloudy 3 -16.1 0 -17.8 87 87 SE 5 7 30.29 1026 10 16 0.00 0.00
8:35 pm 20:35 Mostly Clear with Mist and Fog 3 -16.1 1 -17.2 91 91 ENE 8 13 30.39 1029 3 4 0.00 0.00
8:51 pm 20:51 Clear 3 -16 0 -18 85 85 E 7 11 30.38 1029 9 14 0.00 0.00
8:53 pm 20:53 Clear 4 -15.6 1 -17.2 88 88 E 10 17 30.26 1025 10 16 0.00 0.00
9:37 pm 21:37 Mostly Clear with Mist and Fog 4 -15.6 2 -16.7 91 91 E 5 7 30.37 1028 3 4 0.00 0.00
9:43 pm 21:43 Partly Cloudy with Mist and Fog 5 -15 2 -16.7 87 87 E 6 9 30.36 1028 1 2 0.00 0.00
9:48 pm 21:48 Partly Cloudy with Mist and Fog 3 -16 0 -18 85 85 E 6 9 30.37 1029 2 3 0.00 0.00
9:53 pm 21:53 Mostly Clear with Mist and Fog 3 -16.1 0 -17.8 87 87 ENE 5 7 30.25 1024 5 8 0.00 0.00
10:53 pm 22:53 Clear -1 -18.3 -4 -20 87 87 SSE 3 6 30.24 1024 10 16 0.00 0.00
11:53 pm 23:53 Clear 0 -17.8 -3 -19.4 87 87 Calm 30.21 1023 10 16 0.00 0.00

Powered by AerisWeather